Find Qianfan Xingzuo 13-16

NORAD ID: 69815 Int'l Des: 2026-153 Owner: YUANX Country: CN Constellation: spacesail operational
又名: QIANFAN-216 spacetrack, celestrak
LEOCIRCULARPOLAR

当前视图

正在加载3D地球...

About Qianfan Xingzuo 13-16

Qianfan Xingzuo 13-16 (NORAD 69815) is a spacesail constellation satellite launched Jul 5, 2026 by YUANX of CN. It operates in LEO, CIRCULAR, POLAR orbit with a mass of 267.00 kg.

即将过境

Passes for default location (London). Set your location on the main map for personalized predictions.

高度历史

Loading altitude history...

两行轨道根数

1 69815U 26153R 26235.57261262 .00000437 00000-0 20593-3 0 9991
2 69815 88.9967 354.5356 0009682 74.9112 285.3148 14.18160421 7149
Epoch: Aug 23, 2026 • Age: 14 hours

当前状态

高度 832.7 km
远地点 / 近地点 N/A
速度 7.44 km/s
星下点 -0.65°S, 27.27°W
发射日期 Jul 5, 2026
运行时间 0.1 years
类型 internet

技术详情

分类 Payload
质量 267.00 kg
干质量 267.00 kg
总质量 267.00 kg
长度 0.30 m
直径 3.00 m
跨度 10.00 m
形状 Box+pan
制造商 GESIH
平台类型 Qianfan
阶段状态 In Orbit
所有者/国家 YUANX/CN

Most Searched